Regional Weather Roundup
Issued by NWS

Home | Current Version | Previous Version | Text Only | Print | Product List | Glossary Off
Versions: 1 2 3 4 5 6 7 8 9 10 11 12 13 14 15 16 17 18 19 20 21 22 23 24 25 26 27 28 29 30 31 32 33 34 35 36 37 38 39 40 41 42 43 44 45 46 47 48 49

000
ASUS43 KDMX 301407
RWRIA

WEATHER ROUNDUP FOR IOWA
NATIONAL WEATHER SERVICE DES MOINES IA
900 AM CDT SUN AUG 30 2015

NOTE: "FAIR" INDICATES FEW OR NO CLOUDS BELOW 12,000 FEET WITH NO
SIGNIFICANT WEATHER AND/OR OBSTRUCTIONS TO VISIBILITY.

* - THESE STATIONS ARE NOT NWS STATIONS...THUS NOT UNDER NWS
QUALITY CONTROL.  THEY ALSO DO NOT REPORT WEATHER SUCH
AS PRECIPITATION OR FOG.

IAZ001>003-012>014-020>022-031>034-043>046-301500-
   NORTHWEST IOWA

CITY           SKY/WX    TMP DP  RH WIND       PRES   REMARKS
CARROLL *      SUNNY     64  64 100 S7        30.05S FOG
CHEROKEE *     CLOUDY    64  64 100 S9        30.03S FOG
DENISON *      CLOUDY    64  64 100 SW6       30.03F FOG
LE MARS *      CLOUDY    63  63 100 S9        30.04S FOG
ORANGE CITY *  CLOUDY    63  61  94 S9        30.03F FOG
SHELDON *      CLOUDY    63  61  94 S8        30.02S
SPENCER        CLOUDY    64  59  83 SW10      30.03S
STORM LAKE *   CLOUDY    64  63  94 S9        30.05S
$$

IAZ055>058-069>071-079>083-090>094-301500-
   SOUTHWEST IOWA

CITY           SKY/WX    TMP DP  RH WIND       PRES   REMARKS
ATLANTIC *     FOG       63  63 100 S5        30.07R VSB 0
AUDUBON *      CLOUDY    64  61  88 S3        30.07S FOG
CLARINDA *     FOG       64  64 100 CALM      30.08R VSB 1
COUNCIL BLFS * FOG       63  63 100 S5        30.07R VSB 0
CRESTON *      FOG       64  64 100 SE5       30.08S VSB 0
HARLAN  *      CLOUDY    64 N/A N/A SW7       30.09S FOG
LAMONI         FOG       65  64  97 CALM      30.06S VSB<1/4
RED OAK *      FOG       61  61 100 CALM      30.07S VSB 0
SHENANDOAH *   CLOUDY    61  61 100 CALM      30.08R FOG
$$

IAZ047>049-059>061-072>074-084-301500-
   CENTRAL IOWA

CITY           SKY/WX    TMP DP  RH WIND       PRES   REMARKS
AMES           CLOUDY    64  63  96 CALM      30.06R FOG
ANKENY *       FOG       63  63 100 CALM      30.07R VSB 0
CHARITON *     FOG       64  64 100 CALM      30.07R VSB 0
DES MOINES     DRZL/FOG  64  62  93 S3        30.06R VSB 1/8
GRINNELL*      FOG       64  64 100 CALM      30.08S VSB 3/4
KNOXVILLE *    FOG       63  63 100 CALM      30.05F VSB 0
MARSHALLTOWN   CLOUDY    64  63  96 SE5       30.06S FOG
PELLA *        FOG       64  64 100 CALM      30.08S VSB<1/4
PERRY *        FOG       64  64 100 CALM      30.06S VSB 1/2
$$

IAZ004>006-015-016-023>025-035-036-301500-
   NORTH CENTRAL IOWA

CITY           SKY/WX    TMP DP  RH WIND       PRES   REMARKS
ALGONA *       PTSUNNY   64  63  94 SW9       30.05S
CLARION *      CLOUDY    64  63  94 S3        30.06R
ESTHERVILLE    CLOUDY    61  60  97 S9        30.03S
FORT DODGE *   CLOUDY    66  63  88 S6        30.06S
MASON CITY     CLOUDY    62  62 100 S6        30.07S
FOREST CITY *  CLOUDY    63  63 100 S5        30.05S
IOWA FALLS *   CLOUDY    64  63  94 CALM      30.08R
$$

IAZ007>011-017>019-026>030-037>042-050>054-066-301500-
   NORTHEAST IOWA

CITY           SKY/WX    TMP DP  RH WIND       PRES   REMARKS
CEDAR RAPIDS   CLOUDY    65  65 100 E3        30.07S FOG
CHARLES CITY * PTSUNNY   63  63 100 S6        30.08R FOG
CLINTON *      CLOUDY    63  63 100 CALM      30.11R VSB<1/4
DECORAH *      CLOUDY    63  63 100 CALM      30.07R
DUBUQUE        CLOUDY    65  61  87 CALM      30.09S
MONTICELLO *   CLOUDY    61  61 100 CALM      30.08S
OELWEIN *        N/A     64  64 100 S5        30.08S FOG
WATERLOO       CLOUDY    65  63  93 S6        30.06S
$$

IAZ064-065-067-068-078-301500-
   EAST CENTRAL IOWA

CITY           SKY/WX    TMP DP  RH WIND       PRES   REMARKS
DAVENPORT      FOG       63  63 100 E5        30.09R VSB 1/4
IOWA CITY      CLOUDY    66  64  93 E5        30.08S
MT. PLEASANT * FOG       68  64  88 CALM      30.08R VSB<1/4
MUSCATINE *    FOG       64  63  94 CALM      30.08R VSB 0
QUAD CITIES    FOG       63  62  97 E5        30.08R VSB 1/4
$$

IAZ062-063-075>077-085>089-095>099-301500-
   SOUTHEAST IOWA

CITY           SKY/WX    TMP DP  RH WIND       PRES   REMARKS
BURLINGTON     FOG       67  67 100 E5        30.07R VSB 1/4
FAIRFIELD *    FOG       64  64 100 E5        30.07S VSB 0
FORT MADISON * FOG       66  66 100 E3        30.08R VSB 0
KEOKUK *       FOG       68  68 100 E6        30.06S VSB 1/2
OSKALOOSA *    FOG       64  64 100 CALM      30.07S VSB 1/2
CENTERVILLE *  FOG       64  64 100 CALM      30.09R VSB 1/2
OTTUMWA        FOG       65  65 100 E5        30.06R VSB 1/2
WASHINGTON *     N/A    N/A N/A N/A MISG        N/A
$$

ABBREVIATIONS USED IN REMARKS
   TC - TEMPERATURES IN CELSIUS
  WCI - WIND CHILL INDEX
   HX - HEAT INDEX
  VSB - VISIBILITY
$$



USA.gov is the U.S. government's official web portal to all federal, state and local government web resources and services.